Regional Weather Roundup
Issued by NWS Wakefield, VA

Home | Current Version | Previous Version | Text Only | Print | Product List | Glossary Off
Versions: 1 2 3 4 5 6 7 8 9 10 11 12 13 14 15 16 17 18 19 20 21 22 23 24 25 26 27 28 29 30 31 32 33 34 35 36 37 38 39 40 41 42 43 44 45 46 47 48 49 50
000 ASUS41 KAKQ 202310 RWRAKQ REGIONAL WEATHER ROUNDUP NATIONAL WEATHER SERVICE WAKEFIELD VA 600 PM EST SAT DEC 20 2014 Note: "fair" indicates few or no clouds below 12,000 feet with no significant weather and/or obstructions to visibility. * = Denotes station may not report precipitation (e.g., rain,snow,etc.), thunder or fog. VAZ042-051-052>054-056-210000- NORTHERN VIRGINIA CITY SKY/WX TMP DP RH WIND PRES REMARKS WASH NATIONAL CLOUDY 39 20 46 W5 30.30R DULLES CLOUDY 32 23 69 CALM 30.28R FORT BELVOIR CLOUDY 34 24 64 S1 30.30R QUANTICO CLOUDY 36 22 56 W3 30.32R FREDERICKSBRG* CLOUDY 37 25 64 CALM 30.28S STAFFORD* CLOUDY 34 22 61 CALM 30.33S WARRENTON CLOUDY 35 30 81 CALM 30.28R CULPEPER* CLOUDY 34 28 80 CALM 30.29R MANASSAS* CLOUDY 36 25 64 CALM 30.29 LEESBURG* CLOUDY 34 28 80 CALM 30.28S WINCHESTER CLOUDY 34 21 60 CALM 30.25S FRONT ROYAL* CLOUDY 32 23 69 CALM 30.25R LURAY* CLOUDY 36 28 75 CALM 30.24R $$ VAZ048-049-060>072-079>083-210000- CENTRAL AND SOUTH CENTRAL VIRGINIA CITY SKY/WX TMP DP RH WIND PRES REMARKS RICHMOND CLOUDY 38 22 52 CALM 30.28R CHESTERFIELD* CLOUDY 37 16 41 CALM 30.29R PETERSBURG* CLOUDY 37 28 72 CALM 30.29R HANOVER CLOUDY 33 24 69 CALM 30.30R TAPPAHANNOCK* MOCLDY 34 23 63 CALM 30.30R QUINTON* CLOUDY 35 23 62 CALM 30.29R CHARLOTTSVILLE CLOUDY 36 24 62 SE3 30.25R GORDONSVILLE* CLOUDY 34 25 69 CALM 30.27R ORANGE* CLOUDY 34 28 80 CALM 30.29R LOUISA* CLOUDY 36 27 69 CALM 30.26R BUMPASS* CLOUDY 34 24 67 CALM 30.28R FARMVILLE* CLOUDY 39 26 59 CALM 30.25R CREWE* CLOUDY 36 27 69 CALM 30.26R FORT PICKETT* CLOUDY 37 26 65 CALM 30.26R CHASE CITY* CLOUDY 40 31 71 CALM 30.26R CLARKSVILLE* CLOUDY 36 30 80 CALM 30.26R SOUTH HILL* CLOUDY 37 28 72 CALM 30.32S LAWRENCEVILLE* CLOUDY 36 30 77 CALM 30.26S EMPORIA* CLOUDY 34 30 86 CALM 30.29S $$ VAZ088>098-210000- SOUTHEAST VIRGINIA CITY SKY/WX TMP DP RH WIND PRES REMARKS NORFOLK PTCLDY 37 28 70 CALM 30.28R VIRGINIA BEACH CLOUDY 38 29 70 N5 30.28R NORFOLK NAVAL MOCLDY 39 29 67 CALM 30.30R WEST POINT* CLOUDY 35 26 70 CALM 30.31R SALUDA* FAIR 32 26 79 CALM 30.28S NEWPORT NEWS CLOUDY 39 28 64 CALM 30.29R LANGLEY AFB PTCLDY 36 28 75 N2 30.29R FORT EUSTIS MOCLDY 35 26 70 NE1 30.27R WILLIAMSBURG* MOCLDY 37 30 75 CALM 30.30R HR EXEC AP* CLOUDY 36 28 75 CALM 30.30R FRANKLIN* PTCLDY 34 28 80 CALM 30.28S WAKEFIELD PTCLDY 34 28 79 CALM 30.28R $$ VAZ020-022-025-037-045-210000- WEST CENTRAL AND SOUTHWEST VIRGINIA CITY SKY/WX TMP DP RH WIND PRES REMARKS STAUNTON* CLOUDY 35 25 68 CALM 30.23R WAYNESBORO* CLOUDY 34 24 68 CALM 30.20R HOT SPRINGS VA CLOUDY 31 27 86 W8 30.07S LYNCHBURG CLOUDY 35 27 72 CALM 30.24S DANVILLE CLOUDY 38 29 70 CALM 30.26R SOUTH BOSTON* CLOUDY 38 28 66 CALM 30.26S MARTINSVILLE CLOUDY 39 30 71 CALM 30.25S ROANOKE CLOUDY 36 25 64 SE6 30.24R BLACKSBURG CLOUDY 34 28 79 CALM 30.21R DUBLIN* CLOUDY 38 33 84 CALM 30.19R MARION* LGT RAIN 37 35 92 CALM 30.19R HILLSVILLE* CLOUDY 36 29 76 CALM 30.15S RICHLANDS* MIX PCPN 35 32 90 CALM 30.17R WISE* CLOUDY 36 30 80 CALM 30.17R ABINGDON* CLOUDY 40 38 93 CALM 30.18R FOG $$ MDZ021>025-VAZ099-100-210000- SOUTHERN MARYLAND AND THE DELMARVA PENINSULA CITY SKY/WX TMP DP RH WIND PRES REMARKS PATUXENT RIVER CLOUDY 34 24 67 SW5 30.29R BAY BRIDGE APT N/A 34 23 64 CALM 30.29S LEONARDTOWN CLOUDY 34 25 69 CALM 30.31R DOVER CLOUDY 31 24 74 N1 30.26S GEORGETOWN MOCLDY 34 26 72 NE3 30.28S EASTON MOCLDY 36 27 69 CALM 30.32R CAMBRIDGE MOCLDY 36 28 75 CALM 30.28S SALISBURY CLOUDY 37 25 61 SW3 30.28R OCEAN CITY MOCLDY 33 26 75 CALM 30.28R WALLOPS ISLAND CLOUDY 34 26 72 CALM 30.29R ACCOMACK* MOCLDY 32 27 80 CALM 30.28S $$ NCZ012>017-030>032-210000- NORTH CENTRAL AND EASTERN NORTH CAROLINA CITY SKY/WX TMP DP RH WIND PRES REMARKS ROANOKE RAPIDS MOCLDY 34 30 86 CALM 30.27S RALEIGH CLOUDY 38 34 85 CALM 30.27R FOG ELIZABETH CITY CLOUDY 44 31 60 NE3 30.27S AHOSKIE* CLOUDY 36 31 82 CALM 30.28S EDENTON* CLOUDY 39 32 75 CALM 30.27S CURRITUCK* CLOUDY 40 30 68 NE5 30.28S KILL DEVIL HLS PTCLDY 40 33 75 N3 30.25R MANTEO MOCLDY 40 33 76 N7 30.27R CAPE HATTERAS CLOUDY 42 37 82 VRB6 30.25R TARBORO* PTCLDY 37 34 87 CALM 30.29R GOLDSBORO CLOUDY 39 39 98 CALM 30.26R WASHINGTON CLOUDY 39 35 84 CALM 30.27S GREENVILLE CLOUDY 41 34 75 CALM 30.28R NEW BERN CLOUDY 42 37 82 NE5 30.27R WILMINGTON CLOUDY 42 40 92 NE8 30.25R $$ VAZ048-210000- ELSEWHERE CITY SKY/WX TMP DP RH WIND PRES REMARKS HARRISBURG PA PTCLDY 28 20 71 NW6 30.28R BALTIMORE CLOUDY 34 23 64 CALM 30.28R ANNAPOLIS PTCLDY 34 23 64 CALM 30.29R ANDREWS AFB CLOUDY 35 22 57 W6 30.27R PHILADELPHIA CLOUDY 35 21 56 N5 30.29S HENDERSON NC CLOUDY 37 31 80 CALM 30.26S GREENSBORO CLOUDY 38 32 79 E3 30.22S ROCKY MOUNT CLOUDY 38 34 85 CALM 30.28R $$ VAZ100-210000- MARINE STATION/POSITION TIME TEMP WIND PRES WAVE SWELL AIR SEA DIR/SP/G HT/PER HT/PER (UTC) (F) (DEG/KT/KT) (MB) (FT/S) (FT/S) CAPE MAY NJ 2300 34 43 CALM / 1 1025.2R LEWES DE 2300 35 41 30/ 5/ 5 1025.3R 15NM E FENWICK I 2300 36 46 1025.1R 1/ 5 OCEAN-CITY-INLET 2300 37 44 340/ 2/ 4 1024.9S WACHAPREAGUE VA 2300 35 41 300/ 1/ 2 1025.3R THOMAS POINT MD 2300 36 41 80/ 3/ 4 1026.9R GOOSES REEF MD 2300 36 VRB 4/ 4 1024.5R COVE POINT MD 2300 34 CALM / 2 1025.5R SOLOMONS ISLAND 2300 43 N/A BISHOPS HEAD MD 2300 35 37 300/ 3/ 3 1025.1R POTOMAC MD 2300 36 310/ 4/ 6 1024.6R CAMBRIDGE MD 2300 36 40 260/ 3/ 3 1025.3R LEWISETTA VA 2300 36 41 CALM 1025.3S RAPPAHANNOCK LGT 2300 330/ 5/ 5 1025.6R STINGRAY PT 2300 37 320/ 2/ 4 1025.7R YORK RVR RNG VA 2300 38 10/ 4/ 5 1024.6S YORKTOWN VA 2300 38 45 10/ 4/ 5 1025.0R JAMESTOWN VA 2300 38 360/ 2/ 4 N/A DOMINION TERM VA 2300 39 80/ 3/ 4 1025.2R KIPTOPEKE VA 2300 49 40/ 2/ 3 N/A CHES BAY BRIDGE 2300 38 45 10/ 2/ 5 1024.8R CAPE HENRY VA 2300 38 340/ 2/ 5 1023.9S CHESAPEAKE LGHT 2200 38 10/ 7/ 8 1025.6S WILLOUBY STN VA 2300 38 90/ 5/ 6 1025.5S S CRANEY ISL VA 2300 60/ 5/ 6 1025.1R CAPE HENRY BUOY 2200 49 N/A 2/ 5 1ST LANDING BUOY 2300 38 360/ 6/ 8 1024.7S CAPE CHARLES BUO 2300 47 N/A 2/ 5 2/ 5 64NM E OF VA BCH 2300 42 54 360/ 10/ 16 1024.2R 2/ 6 2/ 6 DUCK PIER NC 2300 41 46 10/ 9/ 11 1023.8S 44100 DUCK FRF 2300 52 N/A 2/ 6 44056 DUCK FRF 2300 47 N/A 2/ 5 OREGON INLET NC 2300 42 49 360/ 7/ 10 1024.4S HATTERAS NC 2300 44 51 30/ 10/ 13 1024.3F DIAMOND SHLS NC 2300 47 1024.0R 3/ 7 CAPE LOOKOUT NC 2200 43 20/ 10/ 12 1023.6F $$

USA.gov is the U.S. government's official web portal to all federal, state and local government web resources and services.